AD8HP Weather Reports


Display with metric or nautical units.
time (UTC)temp
F
wind
direction
speed
MPH
gust
MPH
rain 1hr
in
rain 24hr
in
rain mn
in
humidity
%
barometer
mb
20260906111532 56 31 3.0 5.0 0.00 0.06 0.01 92 1019.1
20260906111009 56 26 3.0 5.0 0.01 0.06 0.01 92 1019.0
20260906110513 56 34 3.0 5.0 0.01 0.06 0.01 92 1018.9
20260906110029 56 37 2.0 4.0 0.01 0.06 0.01 92 1019.0
20260906105515 56 30 2.0 4.0 0.01 0.06 0.01 92 1019.0
20260906105016 56 38 2.0 5.0 0.01 0.06 0.01 92 1019.1
20260906104535 56 25 2.0 6.0 0.01 0.06 0.01 92 1019.1
20260906104016 56 21 2.0 6.0 0.01 0.06 0.01 92 1019.1
20260906103516 56 23 3.0 5.0 0.01 0.06 0.01 92 1019.1
20260906103035 56 10 3.0 5.0 0.01 0.06 0.01 92 1019.0
20260906102519 57 31 2.0 4.0 0.01 0.06 0.01 92 1019.0
20260906102019 57 42 2.0 4.0 0.01 0.06 0.01 92 1019.0
20260906101537 57 22 2.0 4.0 0.01 0.06 0.01 92 1018.9
20260906101018 57 23 2.0 5.0 0.00 0.05 0.00 93 1018.9
20260906100521 57 33 3.0 5.0 0.00 0.05 0.00 93 1018.8
20260906100027 57 34 2.0 4.0 0.00 0.05 0.00 92 1018.8
20260906095512 57 44 3.0 5.0 0.00 0.05 0.00 92 1018.6
20260906095012 57 40 3.0 9.0 0.00 0.05 0.00 92 1018.6
20260906094535 57 32 4.0 9.0 0.00 0.05 0.00 92 1018.7
20260906094004 57 35 3.0 5.0 0.00 0.05 0.00 92 1018.8
20260906093504 57 35 3.0 4.0 0.00 0.05 0.00 92 1018.9
20260906093018 57 26 3.0 5.0 0.00 0.05 0.00 92 1018.8
20260906092504 57 30 3.0 5.0 0.00 0.05 0.00 92 1018.8
20260906092011 57 40 2.0 5.0 0.00 0.05 0.00 92 1018.8
20260906091516 57 33 3.0 5.0 0.00 0.05 0.00 92 1018.7
20260906091007 58 38 3.0 5.0 0.00 0.05 0.00 92 1018.7
20260906090507 58 38 3.0 5.0 0.00 0.05 0.00 92 1018.8
20260906090025 58 34 3.0 5.0 0.00 0.05 0.00 92 1018.9
20260906085513 58 31 3.0 4.0 0.00 0.05 0.00 91 1019.1
20260906085010 58 38 2.0 4.0 0.00 0.05 0.00 92 1019.0
20260906084542 58 17 1.0 4.0 0.00 0.05 0.00 92 1019.0
20260906084014 58 31 1.0 4.0 0.00 0.05 0.00 92 1018.9
20260906083514 58 20 2.0 6.0 0.00 0.05 0.00 92 1018.8
20260906083014 58 27 3.0 6.0 0.00 0.05 0.00 92 1018.7
20260906082505 59 34 3.0 8.0 0.00 0.06 0.00 92 1018.7
20260906082005 59 35 3.0 8.0 0.00 0.06 0.00 92 1018.7
20260906081514 59 49 3.0 7.0 0.00 0.06 0.00 92 1018.7
20260906081007 59 26 4.0 8.0 0.00 0.06 0.00 92 1018.7
20260906080511 59 28 3.0 8.0 0.00 0.06 0.00 92 1018.8
20260906080028 59 360 0.0 3.0 0.00 0.06 0.00 92 1018.9
20260906075510 59 5 1.0 4.0 0.00 0.06 0.00 92 1018.8
20260906075010 59 36 2.0 7.0 0.00 0.06 0.00 92 1018.8
20260906074528 59 31 2.0 7.0 0.00 0.06 0.00 92 1018.6
20260906074014 59 5 3.0 5.0 0.00 0.06 0.00 92 1018.7
20260906073512 59 32 2.0 4.0 0.00 0.06 0.00 92 1018.6
20260906073039 59 22 2.0 4.0 0.00 0.08 0.00 92 1018.5
20260906072512 60 9 0.0 3.0 0.00 0.08 0.00 91 1018.7
20260906072014 60 360 0.0 1.0 0.00 0.09 0.00 91 1018.8
20260906071511 60 360 0.0 2.0 0.00 0.09 0.00 92 1018.8
20260906071007 60 360 0.0 2.0 0.00 0.09 0.00 92 1018.8
20260906070509 60 360 0.0 2.0 0.00 0.09 0.00 91 1018.8
20260906070017 60 360 0.0 2.0 0.00 0.09 0.00 91 1018.6
20260906065512 60 360 1.0 2.0 0.00 0.09 0.00 91 1018.6
20260906065011 61 317 0.0 2.0 0.00 0.09 0.00 91 1018.6
20260906064523 61 317 0.0 1.0 0.00 0.09 0.00 91 1018.5
20260906064010 61 317 0.0 2.0 0.00 0.09 0.00 91 1018.6
20260906063513 61 317 0.0 2.0 0.00 0.09 0.00 91 1018.5
20260906063031 61 317 1.0 2.0 0.00 0.09 0.00 91 1018.5
20260906062513 61 317 1.0 2.0 0.00 0.09 0.00 91 1018.5
20260906062014 62 50 0.0 1.0 0.00 0.09 0.00 91 1018.4
20260906061532 62 50 0.0 1.0 0.00 0.09 0.00 91 1018.4
20260906061015 62 50 0.0 1.0 0.00 0.09 0.00 91 1018.4
20260906060517 62 50 0.0 1.0 0.00 0.09 0.00 90 1018.5
20260906060016 62 50 0.0 1.0 0.00 0.09 0.00 90 1018.5
20260906055509 62 50 0.0 1.0 0.00 0.09 0.00 90 1018.6
20260906055007 63 50 0.0 1.0 0.00 0.09 0.00 90 1018.5
20260906054523 63 50 0.0 1.0 0.00 0.09 0.00 90 1018.5
20260906054011 63 50 0.0 3.0 0.00 0.10 0.00 90 1018.4
20260906053510 63 50 0.0 3.0 0.00 0.11 0.00 90 1018.4
20260906053030 63 50 1.0 4.0 0.00 0.16 0.00 90 1018.2
20260906052514 63 50 2.0 6.0 0.00 0.19 0.00 90 1018.2
20260906052013 63 42 3.0 6.0 0.00 0.20 0.00 90 1018.2
20260906051531 64 55 3.0 7.0 0.00 0.20 0.00 90 1018.3
20260906051014 64 72 2.0 7.0 0.00 0.37 0.00 91 1018.3
20260906050515 64 45 3.0 9.0 0.00 0.48 0.00 91 1018.1
20260906050033 64 44 3.0 9.0 0.00 0.54 0.00 91 1018.1
20260906045514 64 66 5.0 10.0 0.00 0.55 0.00 92 1018.2
20260906045016 64 43 5.0 10.0 0.00 0.63 0.00 92 1018.2
20260906044516 64 45 5.0 10.0 0.00 0.67 0.00 92 1018.3
20260906044009 65 45 5.0 10.0 0.00 0.67 0.00 92 1018.3
20260906043512 65 45 5.0 9.0 0.00 0.67 0.00 92 1018.3
20260906043029 65 68 5.0 9.0 0.00 0.67 0.00 92 1018.3
20260906042514 65 23 5.0 9.0 0.00 0.67 0.00 93 1018.3
20260906042011 66 45 4.0 9.0 0.00 0.67 0.00 93 1018.2
20260906041532 66 15 4.0 8.0 0.00 0.67 0.00 93 1018.0
20260906041016 66 37 4.0 8.0 0.00 0.67 0.00 93 1018.0
20260906040518 66 50 4.0 6.0 0.00 0.67 0.00 93 1018.0
20260906040038 66 43 2.0 5.0 0.00 0.67 0.00 93 1017.9
20260906035514 66 54 2.0 4.0 0.00 0.67 0.67 93 1017.9
20260906035004 66 39 2.0 4.0 0.00 0.67 0.67 93 1017.9
20260906034506 66 20 1.0 3.0 0.00 0.67 0.67 93 1018.0
20260906034002 66 20 1.0 3.0 0.00 0.67 0.67 93 1018.0
20260906033502 66 33 2.0 4.0 0.00 0.67 0.67 93 1017.9
20260906033011 66 37 2.0 5.0 0.00 0.67 0.67 93 1017.8
20260906032502 66 42 3.0 5.0 0.00 0.67 0.67 93 1017.6
20260906032004 67 39 2.0 4.0 0.00 0.67 0.67 93 1017.6
20260906031505 67 24 2.0 4.0 0.00 0.67 0.67 92 1017.7
20260906031004 67 58 1.0 3.0 0.00 0.67 0.67 93 1017.6
20260906030504 67 49 2.0 3.0 0.00 0.67 0.67 93 1017.5
20260906030009 67 15 1.0 3.0 0.00 0.67 0.67 93 1017.6
20260906025503 67 22 1.0 3.0 0.00 0.67 0.67 93 1017.6
20260906025004 67 90 0.0 3.0 0.00 0.67 0.67 93 1017.6
20260906024514 67 90 1.0 3.0 0.00 0.67 0.67 93 1017.6
20260906024008 66 97 1.0 3.0 0.00 0.67 0.67 93 1017.6
20260906023503 66 42 0.0 1.0 0.00 0.67 0.67 92 1017.6
20260906023002 66 42 0.0 1.0 0.00 0.67 0.67 92 1017.6
20260906022503 66 42 0.0 1.0 0.00 0.67 0.67 92 1017.6
20260906022003 66 42 0.0 1.0 0.00 0.67 0.67 91 1017.4
20260906021504 67 42 0.0 0.0 0.00 0.67 0.67 92 1017.4
20260906021002 67 42 0.0 0.0 0.00 0.67 0.67 92 1017.3
20260906020505 67 42 0.0 0.0 0.00 0.67 0.67 92 1017.2
20260906020007 67 42 0.0 1.0 0.00 0.67 0.67 92 1017.2
20260906015502 67 42 0.0 1.0 0.00 0.67 0.67 92 1017.2
20260906015003 67 42 0.0 1.0 0.00 0.67 0.67 92 1017.1
20260906014525 67 42 0.0 1.0 0.00 0.67 0.67 92 1017.1
20260906014008 67 42 0.0 1.0 0.00 0.67 0.67 92 1017.0
20260906013506 67 42 0.0 2.0 0.00 0.67 0.67 92 1016.9
20260906013017 67 42 0.0 3.0 0.00 0.67 0.67 92 1016.9
20260906012510 67 42 1.0 3.0 0.00 0.67 0.67 92 1016.7
20260906012002 67 42 1.0 2.0 0.00 0.67 0.67 91 1016.8
20260906011503 67 42 1.0 2.0 0.00 0.67 0.67 92 1016.7
20260906011003 68 42 1.0 2.0 0.00 0.67 0.67 92 1016.7
20260906010503 68 42 0.0 2.0 0.00 0.67 0.67 92 1016.6
20260906010006 68 42 0.0 3.0 0.00 0.67 0.67 91 1016.6
20260906005503 68 42 1.0 3.0 0.00 0.67 0.67 91 1016.6
20260906005003 68 42 1.0 3.0 0.00 0.67 0.67 91 1016.5
20260906004517 68 42 2.0 3.0 0.00 0.67 0.67 92 1016.6
20260906004004 68 42 1.0 2.0 0.00 0.67 0.67 92 1016.6
20260906003507 68 42 0.0 0.0 0.00 0.67 0.67 91 1016.7
20260906003015 68 42 0.0 0.0 0.00 0.67 0.67 91 1016.6
20260906002505 68 42 0.0 0.0 0.00 0.67 0.67 91 1016.6
20260906002010 68 42 0.0 2.0 0.00 0.67 0.67 91 1016.5
20260906001526 68 42 0.0 2.0 0.00 0.67 0.67 91 1016.5
20260906001012 68 42 0.0 0.0 0.00 0.67 0.67 91 1016.4
20260906000505 68 42 0.0 0.0 0.00 0.67 0.67 91 1016.4
20260906000004 68 42 0.0 1.0 0.00 0.67 0.67 91 1016.4
20260905235502 68 42 0.0 1.0 0.00 0.67 0.67 91 1016.5
20260905235004 68 42 0.0 2.0 0.00 0.67 0.67 91 1016.5
20260905234507 68 42 0.0 2.0 0.00 0.67 0.67 91 1016.5
20260905234003 69 42 1.0 3.0 0.00 0.67 0.67 91 1016.4
20260905233503 69 42 1.0 3.0 0.00 0.67 0.67 91 1016.4
20260905233014 69 42 1.0 3.0 0.01 0.67 0.67 91 1016.5
20260905232506 69 42 1.0 3.0 0.02 0.67 0.67 91 1016.4
20260905232009 68 42 1.0 2.0 0.03 0.67 0.67 91 1016.4
20260905231518 69 42 0.0 2.0 0.04 0.67 0.67 91 1016.5
20260905231010 68 42 0.0 2.0 0.04 0.67 0.67 91 1016.4
20260905230509 68 42 0.0 2.0 0.05 0.67 0.67 91 1016.3
20260905230031 68 42 0.0 2.0 0.05 0.67 0.67 91 1016.3
20260905225514 68 34 0.0 2.0 0.05 0.67 0.67 91 1016.4
20260905225005 68 355 0.0 4.0 0.05 0.67 0.67 91 1016.4
20260905224507 68 32 1.0 4.0 0.05 0.67 0.67 91 1016.3
20260905224003 68 23 2.0 5.0 0.05 0.67 0.67 90 1016.3
20260905223504 68 32 2.0 5.0 0.05 0.67 0.67 90 1016.3
20260905223012 69 26 4.0 5.0 0.04 0.66 0.66 90 1016.4
20260905222505 69 30 3.0 5.0 0.03 0.65 0.65 90 1016.4
20260905222007 69 9 2.0 4.0 0.02 0.64 0.64 90 1016.4
20260905221519 69 9 2.0 5.0 0.01 0.63 0.63 90 1016.2
20260905221008 69 30 3.0 5.0 0.01 0.63 0.63 89 1016.2
20260905220510 69 16 1.0 6.0 0.00 0.62 0.62 89 1016.1
20260905220025 69 5 1.0 7.0 0.00 0.62 0.62 89 1016.2
20260905215510 69 25 4.0 9.0 0.00 0.62 0.62 88 1016.2
20260905215014 69 51 4.0 9.0 0.00 0.62 0.62 88 1016.1
20260905214530 69 66 6.0 9.0 0.00 0.62 0.62 88 1016.1
20260905214003 69 23 4.0 11.0 0.00 0.62 0.62 87 1016.0
20260905213503 70 58 7.0 14.0 0.00 0.62 0.62 87 1016.0
20260905213013 70 52 9.0 14.0 0.00 0.62 0.62 87 1015.9
20260905212506 70 72 6.0 14.0 0.00 0.62 0.62 87 1015.8
20260905212003 70 51 6.0 11.0 0.00 0.62 0.62 88 1015.7
20260905211514 70 51 5.0 12.0 0.00 0.62 0.62 87 1015.8
20260905211008 70 37 8.0 12.0 0.00 0.62 0.62 87 1015.9
20260905210508 71 12 6.0 12.0 0.00 0.62 0.62 88 1015.8
20260905210021 71 35 6.0 13.0 0.00 0.62 0.62 88 1015.8
20260905205512 71 24 7.0 13.0 0.00 0.62 0.62 87 1015.8
20260905205013 71 49 7.0 13.0 0.00 0.62 0.62 87 1015.8
20260905204527 72 46 9.0 13.0 0.00 0.62 0.62 87 1015.8
20260905204014 72 46 6.0 13.0 0.00 0.62 0.62 87 1015.7
20260905203514 73 55 7.0 12.0 0.00 0.62 0.62 86 1015.8
20260905203034 73 19 9.0 12.0 0.00 0.62 0.62 86 1015.7
20260905202503 73 15 7.0 10.0 0.00 0.62 0.62 85 1015.7
20260905202003 73 66 3.0 10.0 0.00 0.62 0.62 85 1015.8
20260905201514 73 59 5.0 13.0 0.00 0.62 0.62 85 1015.8
20260905201005 73 49 6.0 13.0 0.00 0.62 0.62 85 1015.8
20260905200507 73 83 7.0 12.0 0.00 0.62 0.62 85 1015.8
20260905200019 73 71 6.0 12.0 0.00 0.62 0.62 85 1015.8
20260905195510 73 69 8.0 12.0 0.00 0.62 0.62 85 1015.9
20260905195010 74 62 7.0 11.0 0.00 0.62 0.62 85 1015.8
20260905194524 74 74 6.0 11.0 0.00 0.62 0.62 85 1015.8
20260905194011 74 96 5.0 10.0 0.00 0.62 0.62 85 1015.8
20260905193514 74 57 5.0 10.0 0.00 0.62 0.62 85 1015.8
20260905193029 74 46 5.0 9.0 0.00 0.62 0.62 85 1015.9
20260905192518 74 41 5.0 9.0 0.00 0.62 0.62 86 1015.9
20260905192017 74 47 4.0 9.0 0.00 0.62 0.62 86 1015.8
20260905191531 74 67 2.0 8.0 0.00 0.62 0.62 86 1015.9
20260905191006 74 38 5.0 8.0 0.00 0.62 0.62 86 1015.9
20260905190504 74 50 3.0 7.0 0.00 0.62 0.62 86 1015.9
20260905190017 74 28 4.0 7.0 0.00 0.62 0.62 86 1015.9
20260905185510 74 61 5.0 9.0 0.00 0.62 0.62 85 1015.8
20260905185004 74 52 5.0 9.0 0.00 0.62 0.62 85 1015.9
20260905184504 74 59 5.0 8.0 0.00 0.62 0.62 85 1015.9
20260905184003 74 41 4.0 8.0 0.00 0.62 0.62 86 1016.0
20260905183503 74 36 4.0 7.0 0.00 0.62 0.62 85 1016.0
20260905183005 74 69 3.0 7.0 0.00 0.62 0.62 85 1016.1
20260905182503 74 63 3.0 5.0 0.00 0.62 0.62 84 1016.1
20260905182002 74 67 1.0 6.0 0.00 0.62 0.62 85 1016.0
20260905181509 74 42 2.0 8.0 0.00 0.62 0.62 84 1016.0
20260905181003 74 67 4.0 8.0 0.00 0.62 0.62 84 1016.1
20260905180507 74 44 3.0 8.0 0.00 0.62 0.62 85 1016.0
20260905180015 75 84 5.0 8.0 0.00 0.62 0.62 84 1016.0
20260905175507 75 88 3.0 8.0 0.00 0.62 0.62 84 1015.9
20260905175007 75 41 4.0 8.0 0.00 0.62 0.62 83 1016.0
20260905174505 75 92 4.0 8.0 0.00 0.62 0.62 83 1015.9
20260905174002 75 93 4.0 8.0 0.00 0.63 0.62 83 1016.0
20260905173503 75 42 4.0 7.0 0.00 0.63 0.62 83 1016.0
20260905173003 74 64 2.0 7.0 0.00 0.63 0.62 84 1016.0
20260905172504 74 113 3.0 7.0 0.00 0.63 0.62 84 1016.0
20260905172007 74 125 4.0 7.0 0.00 0.63 0.62 84 1016.1
20260905171518 74 65 4.0 7.0 0.00 0.63 0.62 84 1016.0
20260905171009 74 78 2.0 5.0 0.00 0.63 0.62 86 1016.0
20260905170504 74 111 3.0 6.0 0.00 0.63 0.62 85 1016.1
20260905170013 74 110 2.0 6.0 0.00 0.63 0.62 86 1016.0
20260905165511 74 71 2.0 8.0 0.00 0.63 0.62 86 1016.1
20260905165006 74 78 3.0 8.0 0.00 0.63 0.62 85 1016.4
20260905164518 74 74 5.0 8.0 0.00 0.63 0.62 85 1016.1
20260905164009 74 74 2.0 7.0 0.00 0.63 0.62 87 1016.1
20260905163510 73 76 1.0 9.0 0.00 0.63 0.62 86 1016.2
20260905163003 73 117 3.0 9.0 0.00 0.63 0.62 86 1016.2
20260905162503 73 115 4.0 8.0 0.00 0.63 0.62 86 1016.2
20260905162002 73 66 3.0 8.0 0.00 0.63 0.62 85 1016.2
20260905161503 73 89 5.0 9.0 0.00 0.63 0.62 86 1016.1
20260905161003 73 65 4.0 9.0 0.00 0.63 0.62 85 1016.2
20260905160503 73 65 4.0 9.0 0.00 0.63 0.62 86 1016.2
20260905160030 73 89 3.0 8.0 0.00 0.66 0.62 86 1016.2
20260905155507 73 117 4.0 8.0 0.00 0.74 0.62 85 1016.2
20260905155006 73 136 2.0 7.0 0.00 0.80 0.62 86 1016.2
20260905154516 73 170 1.0 7.0 0.00 0.80 0.62 86 1016.2
20260905154008 73 66 3.0 7.0 0.00 0.80 0.62 85 1016.2
20260905153510 73 125 4.0 10.0 0.00 0.80 0.62 86 1016.2
20260905153022 73 151 3.0 10.0 0.00 0.80 0.62 87 1016.1
20260905152512 72 178 2.0 6.0 0.00 0.80 0.62 89 1016.0
20260905152014 72 163 3.0 6.0 0.00 0.81 0.62 89 1016.2
20260905151504 71 140 2.0 5.0 0.00 0.85 0.62 90 1016.2
20260905151003 71 119 2.0 5.0 0.00 0.86 0.62 90 1016.2
20260905150503 71 110 2.0 4.0 0.00 0.87 0.62 89 1016.3
20260905150010 71 119 2.0 6.0 0.00 0.89 0.62 90 1016.3
20260905145502 71 139 2.0 7.0 0.00 0.90 0.62 90 1016.2
20260905145004 71 100 4.0 7.0 0.00 0.91 0.62 90 1016.1
20260905144514 70 110 3.0 6.0 0.00 0.92 0.62 91 1016.0
20260905144009 70 95 2.0 7.0 0.00 0.99 0.62 91 1016.0
20260905143507 70 101 2.0 7.0 0.00 0.99 0.62 91 1016.0
20260905143018 70 108 3.0 6.0 0.00 1.02 0.62 91 1015.9
20260905142512 69 91 3.0 6.0 0.00 1.03 0.62 91 1015.9
20260905142011 69 106 2.0 6.0 0.00 1.03 0.62 91 1015.8
20260905141527 69 129 3.0 6.0 0.00 1.03 0.62 91 1015.8
20260905141015 69 127 3.0 7.0 0.00 1.03 0.62 92 1015.8
20260905140506 69 143 4.0 8.0 0.00 1.03 0.62 92 1015.8
20260905140005 69 110 5.0 8.0 0.00 1.03 0.62 92 1015.7
20260905135504 69 130 3.0 8.0 0.00 1.03 0.62 93 1015.6
20260905135004 69 132 3.0 9.0 0.00 1.03 0.62 93 1015.6
20260905134511 69 112 4.0 9.0 0.00 1.03 0.62 93 1015.5
20260905134004 69 132 4.0 8.0 0.00 1.03 0.62 93 1015.5
20260905133511 69 132 3.0 9.0 0.00 1.03 0.62 94 1015.5
20260905133014 68 128 4.0 9.0 0.00 1.03 0.62 94 1015.5
20260905132507 68 92 4.0 10.0 0.00 1.03 0.62 93 1015.5
20260905132017 68 124 4.0 10.0 0.00 1.03 0.62 93 1015.5
20260905131535 68 98 4.0 8.0 0.00 1.03 0.62 93 1015.6
20260905131016 68 90 4.0 7.0 0.00 1.03 0.62 93 1015.6
20260905130509 68 113 3.0 8.0 0.00 1.03 0.62 93 1015.6
20260905130030 68 86 4.0 9.0 0.00 1.03 0.62 93 1015.5
20260905125520 68 68 3.0 9.0 0.00 1.03 0.62 93 1015.5
20260905125003 68 117 6.0 9.0 0.00 1.03 0.62 93 1015.4
20260905124509 68 69 3.0 10.0 0.00 1.03 0.62 93 1015.4
20260905124003 68 69 4.0 10.0 0.00 1.03 0.62 93 1015.4
20260905123504 68 34 6.0 10.0 0.00 1.03 0.62 93 1015.4
20260905123017 68 44 5.0 10.0 0.00 1.03 0.62 93 1015.4
20260905122511 69 44 3.0 5.0 0.00 1.03 0.62 94 1015.3
20260905122009 69 45 2.0 5.0 0.00 1.03 0.62 94 1015.3
20260905121521 68 38 3.0 7.0 0.00 1.03 0.62 94 1015.2
20260905121013 68 69 3.0 7.0 0.00 1.03 0.62 94 1015.2
20260905120512 68 84 2.0 7.0 0.00 1.03 0.62 94 1015.1
20260905120028 68 76 2.0 5.0 0.00 1.03 0.62 93 1015.0
20260905115513 68 88 3.0 7.0 0.00 1.03 0.62 93 1014.9
20260905115014 68 88 2.0 7.0 0.00 1.03 0.62 93 1014.9
20260905114538 68 59 4.0 8.0 0.00 1.03 0.62 93 1014.8
20260905114015 68 63 5.0 9.0 0.00 1.03 0.62 93 1014.7
20260905113504 68 50 5.0 9.0 0.00 1.03 0.62 93 1014.6
20260905113010 68 38 4.0 9.0 0.00 1.03 0.62 94 1014.6
20260905112506 68 42 3.0 6.0 0.00 1.03 0.62 93 1014.5
20260905112006 68 51 3.0 6.0 0.00 1.03 0.62 93 1014.4